"startDT [UTC]","vpos","CH4 [ppm]","stdev(CH4) [ppm]","CO2 [ppm]","stdev(CO2) [ppm]","H2O_reported [%]","stdev(H2O_reported)","CavityPressure [torr]","CavityTemp [C]","OutletValve","CH4_dry [ppm]","CO2_dry [ppm]","DasTemp [C]","EtalonTemp [C]","WarmBoxTemp [C]","MPVPosition","T_ECpre [C]","T_EC1 [C]","T_EC2 [C]","p_inlet [hPa]","p_in [hPa]","p_out [hPa]","T_inlet [C]","RH_inlet [%]","dwpt_inlet [C]","T_vent [C]","RH_vent [%]","dwpt_vent [C]","flow_vent [l min-1]","flow_inlet [l min-1]","dwpt_sample [C]","T_room [C]"
2016-06-01 00:00:00,3.0,1.87655,0.00876,399.110,2.727,0.1541,0.2492,139.957,45.000,31256.63287,1.88067,400.094,36.101,45.070,45.000,0.00,0.09,-272.78,-272.84,-12,446,-944,24.7,18.5,-0.8,24.3,19.3,-0.5,5.73,1.77,-1.5,28.9
2016-06-01 00:01:00,3.0,1.87527,0.00036,397.136,0.049,0.0263,0.0015,140.001,45.000,31215.27275,1.87575,397.261,36.081,45.070,45.000,0.00,0.09,-272.78,-272.84,-13,444,-944,24.7,18.4,-0.9,24.3,19.2,-0.6,5.73,1.94,-1.5,28.9
2016-06-01 00:02:00,3.0,1.87538,0.00036,397.357,0.077,0.0255,0.0022,140.000,45.000,31204.08071,1.87584,397.475,36.064,45.070,45.000,0.00,0.09,-272.77,-272.84,-13,444,-944,24.7,18.6,-0.8,24.3,19.3,-0.6,5.73,1.63,-1.5,28.9
2016-06-01 00:03:00,3.0,1.87535,0.00044,397.477,0.026,0.0208,0.0023,140.000,45.000,31196.30487,1.87575,397.577,36.063,45.070,45.000,0.00,0.09,-272.78,-272.84,-12,444,-944,24.7,18.6,-0.8,24.3,19.4,-0.5,5.73,1.99,-1.5,28.9
2016-06-01 00:04:00,3.0,1.87559,0.00033,397.547,0.030,0.0168,0.0024,140.001,45.000,31188.64787,1.87589,397.626,36.063,45.070,45.000,0.00,0.09,-272.78,-272.84,-13,444,-944,24.7,18.6,-0.8,24.3,19.4,-0.5,5.73,1.61,-1.5,28.9
2016-06-01 00:05:00,3.0,1.87564,0.00047,397.551,0.032,0.0125,0.0021,140.001,45.000,31183.19518,1.87587,397.612,36.063,45.070,45.000,0.00,0.09,-272.78,-272.83,-12,444,-944,24.7,18.6,-0.8,24.3,19.3,-0.5,5.73,1.98,-1.5,28.9
2016-06-01 00:06:00,3.0,1.87550,0.00039,397.566,0.024,0.0105,0.0018,140.000,45.000,31178.53103,1.87571,397.615,36.064,45.070,45.000,0.00,0.09,-272.78,-272.84,-13,445,-944,24.8,18.6,-0.7,24.4,19.4,-0.5,5.73,1.67,-1.5,28.9
2016-06-01 00:07:00,3.0,1.87582,0.00040,397.581,0.028,0.0081,0.0018,139.999,45.000,31173.87671,1.87596,397.619,36.068,45.070,45.000,0.00,0.09,-272.79,-272.84,-13,445,-944,24.8,18.3,-1.0,24.4,19.2,-0.6,5.73,1.90,-1.5,28.9
2016-06-01 00:08:00,3.0,1.87565,0.00031,397.577,0.021,0.0068,0.0021,140.000,45.000,31170.61460,1.87579,397.611,36.067,45.070,45.000,0.00,0.09,-272.78,-272.84,-12,445,-944,24.8,18.4,-0.9,24.4,19.1,-0.7,5.73,1.76,-1.5,28.9
2016-06-01 00:09:00,3.0,1.87567,0.00032,397.594,0.030,0.0061,0.0022,139.998,45.000,31167.34719,1.87577,397.622,36.064,45.070,45.000,0.00,0.09,-272.78,-272.83,-14,445,-944,24.8,19.0,-0.4,24.4,19.7,-0.3,5.73,1.78,-1.5,28.9
2016-06-01 00:10:00,3.0,1.87576,0.00028,397.587,0.022,0.0049,0.0021,139.999,45.000,31165.69999,1.87585,397.610,36.062,45.070,45.000,0.00,0.09,-272.78,-272.84,-12,445,-944,24.8,19.0,-0.4,24.4,19.8,-0.2,5.73,1.89,-1.5,29.0
2016-06-01 00:11:00,3.0,1.87556,0.00040,397.602,0.034,0.0052,0.0017,140.001,45.000,31166.10520,1.87565,397.627,36.059,45.070,45.000,0.00,0.09,-272.77,-272.83,-13,445,-944,24.8,18.4,-0.8,24.5,19.3,-0.5,5.73,1.68,-1.5,28.9
2016-06-01 00:12:00,3.0,1.87562,0.00035,397.602,0.025,0.0036,0.0022,139.999,45.000,31163.32747,1.87571,397.619,36.042,45.070,45.000,0.00,0.09,-272.77,-272.83,-13,445,-944,24.8,18.6,-0.7,24.5,19.2,-0.5,5.73,1.97,-1.5,28.9
2016-06-01 00:13:00,3.0,1.87554,0.00033,397.589,0.022,0.0040,0.0020,139.999,45.000,31161.69972,1.87560,397.609,36.016,45.070,45.000,0.00,0.09,-272.77,-272.84,-12,445,-944,24.9,18.6,-0.6,24.5,19.4,-0.4,5.73,1.62,-1.5,29.0
2016-06-01 00:14:00,3.0,1.87577,0.00030,397.613,0.023,0.0032,0.0017,140.002,45.000,31161.58609,1.87584,397.628,36.040,45.070,45.000,0.00,0.09,-272.79,-272.84,-14,445,-944,24.9,18.5,-0.7,24.5,19.3,-0.4,5.73,1.99,-1.5,29.0
2016-06-01 00:15:00,3.0,1.87563,0.00033,397.593,0.023,0.0035,0.0021,140.000,45.000,31159.97586,1.87569,397.610,36.049,45.070,45.000,0.00,0.09,-272.76,-272.84,-12,445,-944,24.9,18.9,-0.4,24.5,19.5,-0.2,5.73,1.63,-1.5,28.9
2016-06-01 00:16:00,3.0,1.87578,0.00033,397.614,0.030,0.0020,0.0016,140.002,45.000,31158.50314,1.87578,397.624,36.059,45.070,45.000,0.00,0.09,-272.78,-272.84,-13,445,-944,24.9,18.8,-0.4,24.5,19.7,-0.1,5.73,1.94,-1.5,29.0
2016-06-01 00:17:00,3.0,1.87600,0.00039,397.602,0.030,0.0026,0.0020,140.003,45.000,31157.10708,1.87609,397.614,36.063,45.070,45.000,0.00,0.09,-272.77,-272.85,-14,445,-944,24.9,18.6,-0.6,24.5,19.4,-0.3,5.73,1.71,-1.4,29.0
2016-06-01 00:18:00,3.0,1.87571,0.00041,397.612,0.021,0.0016,0.0019,139.998,45.000,31157.10908,1.87573,397.619,36.064,45.070,45.000,0.00,0.09,-272.78,-272.84,-12,445,-944,24.9,18.3,-0.8,24.5,19.2,-0.5,5.73,1.84,-1.4,29.0
2016-06-01 00:19:00,3.0,1.87588,0.00038,397.624,0.025,0.0019,0.0019,139.999,45.000,31155.89289,1.87593,397.633,36.064,45.070,45.000,0.00,0.09,-272.77,-272.84,-14,445,-944,25.0,18.1,-1.0,24.6,18.9,-0.7,5.73,1.83,-1.4,29.0
2016-06-01 00:20:00,0.0,1.90117,0.00837,404.676,2.642,0.6163,0.2447,140.045,45.000,31718.34200,1.91172,407.528,36.063,45.069,45.000,0.00,0.09,-272.78,-272.84,-14,527,-943,25.0,18.1,-0.9,24.6,18.8,-0.7,5.73,1.80,-1.4,29.0
2016-06-01 00:21:00,0.0,1.90257,0.00037,405.564,0.041,0.7605,0.0070,140.001,45.000,31763.17708,1.91717,409.362,36.063,45.070,45.000,0.00,0.09,-272.79,-272.83,-14,527,-943,25.0,18.5,-0.6,24.6,19.2,-0.5,5.73,2.04,-1.4,29.1
2016-06-01 00:22:00,0.0,1.90232,0.00034,405.469,0.048,0.7758,0.0088,140.000,45.000,31775.69410,1.91722,409.345,36.062,45.069,45.000,0.00,0.09,-272.77,-272.83,-15,528,-943,25.0,18.8,-0.4,24.6,19.5,-0.2,5.73,1.74,-1.4,29.1
2016-06-01 00:23:00,0.0,1.90263,0.00023,405.565,0.043,0.7597,0.0075,140.000,45.000,31783.73549,1.91719,409.360,36.060,45.070,45.000,0.00,0.09,-272.78,-272.83,-15,528,-943,25.0,18.3,-0.8,24.6,19.3,-0.4,5.73,1.82,-1.4,29.1
2016-06-01 00:24:00,0.0,1.90268,0.00027,405.546,0.048,0.7595,0.0104,140.002,45.000,31791.13372,1.91725,409.340,36.051,45.069,45.000,0.00,0.09,-272.78,-272.84,-14,528,-943,25.0,18.2,-0.8,24.6,19.1,-0.5,5.73,2.01,-1.4,29.1
2016-06-01 00:25:00,0.0,1.90268,0.00034,405.560,0.046,0.7592,0.0094,140.000,45.000,31797.11241,1.91723,409.350,36.038,45.070,45.000,0.00,0.09,-272.77,-272.84,-15,528,-943,25.0,18.2,-0.8,24.6,18.9,-0.6,5.73,1.67,-1.4,29.1
2016-06-01 00:26:00,0.0,1.90248,0.00042,405.561,0.035,0.7643,0.0046,140.002,45.000,31803.13044,1.91714,409.380,36.010,45.070,45.000,0.00,0.09,-272.77,-272.83,-15,529,-943,25.0,18.3,-0.8,24.6,19.1,-0.4,5.73,1.93,-1.4,29.1
2016-06-01 00:27:00,0.0,1.90273,0.00040,405.627,0.030,0.7451,0.0044,139.999,45.000,31807.43104,1.91701,409.349,36.000,45.070,45.000,0.00,0.09,-272.77,-272.84,-14,529,-943,25.0,17.8,-1.1,24.6,18.8,-0.7,5.73,1.93,-1.4,29.1
2016-06-01 00:28:00,0.0,1.90274,0.00035,405.641,0.040,0.7495,0.0064,140.001,45.000,31810.73479,1.91710,409.385,36.001,45.070,45.000,0.00,0.09,-272.77,-272.84,-14,528,-943,25.0,17.9,-1.1,24.6,18.7,-0.7,5.73,1.67,-1.4,29.1
2016-06-01 00:29:00,0.0,1.90307,0.00039,405.655,0.029,0.7353,0.0048,139.999,45.000,31814.38972,1.91718,409.326,36.000,45.070,45.000,0.00,0.09,-272.77,-272.83,-15,529,-943,25.1,17.5,-1.3,24.7,18.4,-1.0,5.73,2.00,-1.4,29.1
2016-06-01 00:30:00,0.0,1.90287,0.00047,405.651,0.039,0.7368,0.0062,140.002,45.000,31818.79743,1.91697,409.330,35.998,45.070,45.000,0.00,0.09,-272.77,-272.84,-14,529,-943,25.0,17.6,-1.3,24.7,18.4,-1.0,5.73,1.83,-1.4,29.1
2016-06-01 00:31:00,0.0,1.90297,0.00038,405.641,0.048,0.7418,0.0056,140.004,45.000,31821.13455,1.91720,409.345,35.985,45.070,45.000,0.00,0.09,-272.78,-272.84,-14,529,-943,25.0,17.7,-1.2,24.7,18.4,-0.9,5.73,1.72,-1.4,29.1
2016-06-01 00:32:00,0.0,1.90286,0.00031,405.623,0.029,0.7464,0.0044,140.002,45.000,31823.04095,1.91716,409.349,35.967,45.070,45.000,0.00,0.09,-272.77,-272.84,-15,529,-943,25.1,17.8,-1.1,24.7,18.6,-0.8,5.73,2.03,-1.4,29.1
2016-06-01 00:33:00,0.0,1.90257,0.00028,405.605,0.039,0.7448,0.0098,140.000,45.000,31828.09895,1.91686,409.323,35.947,45.070,45.000,0.00,0.09,-272.77,-272.84,-15,529,-943,25.1,17.8,-1.1,24.7,18.5,-0.9,5.73,1.73,-1.4,29.1
2016-06-01 00:34:00,0.0,1.90247,0.00035,405.604,0.043,0.7551,0.0046,140.002,45.000,31827.91838,1.91693,409.375,35.940,45.070,45.000,0.00,0.09,-272.78,-272.83,-14,529,-943,25.1,18.0,-0.9,24.7,18.8,-0.7,5.73,1.81,-1.3,29.1
2016-06-01 00:35:00,0.0,1.90225,0.00036,405.596,0.037,0.7545,0.0068,140.003,45.000,31831.39243,1.91672,409.368,35.946,45.070,45.000,0.00,0.09,-272.77,-272.83,-15,529,-943,25.1,17.9,-1.0,24.6,18.8,-0.7,5.73,2.01,-1.3,29.1
2016-06-01 00:36:00,0.0,1.90248,0.00050,405.611,0.037,0.7512,0.0061,140.001,45.000,31830.34670,1.91688,409.360,35.960,45.070,45.000,0.00,0.09,-272.77,-272.83,-15,529,-943,25.1,17.9,-1.0,24.7,18.7,-0.7,5.73,1.67,-1.3,29.1
2016-06-01 00:37:00,0.0,1.90259,0.00035,405.602,0.040,0.7492,0.0078,140.000,45.000,31828.48456,1.91695,409.345,35.981,45.070,45.000,0.00,0.09,-272.78,-272.83,-14,529,-943,25.1,17.8,-1.1,24.7,18.7,-0.7,5.73,1.91,-1.3,29.1
2016-06-01 00:38:00,0.0,1.90299,0.00047,405.606,0.040,0.7469,0.0077,139.999,45.000,31828.01978,1.91728,409.337,35.989,45.070,45.000,0.00,0.09,-272.77,-272.84,-14,529,-943,25.1,17.7,-1.1,24.7,18.5,-0.8,5.73,1.93,-1.3,29.1
2016-06-01 00:39:00,0.0,1.90319,0.00037,405.630,0.048,0.7359,0.0124,140.001,45.000,31828.83302,1.91729,409.302,35.991,45.069,45.000,0.00,0.09,-272.77,-272.84,-15,529,-943,25.1,17.5,-1.3,24.7,18.3,-1.0,5.73,1.66,-1.3,29.1
2016-06-01 00:40:00,0.0,1.90284,0.00045,405.555,0.053,0.7594,0.0088,139.999,45.000,31828.09481,1.91740,409.348,35.989,45.069,45.000,0.00,0.09,-272.78,-272.84,-14,529,-943,25.1,18.0,-0.9,24.7,18.8,-0.6,5.73,1.99,-1.3,29.1
2016-06-01 00:41:00,0.0,1.90335,0.00042,405.654,0.039,0.7350,0.0072,140.002,45.000,31828.52678,1.91745,409.323,35.999,45.069,45.000,0.00,0.09,-272.77,-272.84,-14,529,-943,25.1,17.5,-1.3,24.7,18.3,-1.0,5.73,1.83,-1.3,29.1
2016-06-01 00:42:00,0.0,1.90276,0.00044,405.576,0.028,0.7614,0.0073,140.001,45.000,31829.29195,1.91735,409.379,35.998,45.069,45.000,0.00,0.09,-272.77,-272.83,-15,529,-943,25.1,18.1,-0.8,24.7,18.7,-0.7,5.73,1.71,-1.3,29.1
2016-06-01 00:43:00,0.0,1.90280,0.00047,405.589,0.030,0.7584,0.0061,140.000,45.000,31830.63138,1.91735,409.378,36.000,45.069,45.000,0.00,0.09,-272.78,-272.83,-15,529,-943,25.1,18.0,-0.9,24.7,18.9,-0.5,5.73,2.03,-1.3,29.1
2016-06-01 00:44:00,0.0,1.90252,0.00035,405.553,0.034,0.7592,0.0076,140.001,45.000,31831.94564,1.91709,409.346,35.994,45.070,45.000,0.00,0.09,-272.78,-272.85,-14,529,-943,25.1,18.1,-0.8,24.7,18.7,-0.7,5.73,1.71,-1.3,29.1
2016-06-01 00:45:00,0.0,1.90224,0.00040,405.476,0.046,0.7726,0.0040,140.001,45.000,31833.70693,1.91705,409.337,36.000,45.070,45.000,0.00,0.09,-272.78,-272.84,-15,529,-943,25.1,18.3,-0.7,24.7,19.1,-0.4,5.73,1.83,-1.3,29.1
2016-06-01 00:46:00,0.0,1.90295,0.00036,405.565,0.043,0.7525,0.0062,140.000,45.000,31832.44620,1.91738,409.323,35.999,45.070,45.000,0.00,0.09,-272.77,-272.84,-15,529,-943,25.1,17.8,-1.0,24.7,18.8,-0.6,5.73,1.98,-1.3,29.1
2016-06-01 00:47:00,0.0,1.90325,0.00041,405.571,0.053,0.7495,0.0085,139.997,45.000,31830.13510,1.91763,409.314,35.994,45.070,45.000,0.00,0.09,-272.77,-272.84,-14,529,-943,25.1,17.8,-1.1,24.7,18.5,-0.8,5.73,1.66,-1.3,29.0
2016-06-01 00:48:00,0.0,1.90289,0.00043,405.580,0.047,0.7477,0.0060,140.000,45.000,31833.48243,1.91721,409.314,35.986,45.070,45.000,0.00,0.09,-272.78,-272.83,-15,529,-943,25.1,17.7,-1.1,24.7,18.5,-0.8,5.73,1.96,-1.3,29.0
2016-06-01 00:49:00,0.0,1.90305,0.00032,405.524,0.034,0.7559,0.0045,140.001,45.000,31833.57978,1.91754,409.300,36.000,45.070,45.000,0.00,0.09,-272.77,-272.83,-15,529,-943,25.1,17.9,-1.0,24.7,18.7,-0.7,5.73,1.86,-1.3,29.1
2016-06-01 00:50:00,0.0,1.90288,0.00042,405.525,0.045,0.7583,0.0085,140.001,45.000,31834.36084,1.91747,409.313,36.000,45.070,45.000,0.00,0.09,-272.78,-272.83,-14,529,-943,25.1,18.0,-0.9,24.7,18.7,-0.7,5.73,1.69,-1.3,29.1
2016-06-01 00:51:00,0.0,1.90262,0.00026,405.485,0.033,0.7643,0.0033,139.999,45.000,31835.14475,1.91725,409.301,35.999,45.070,45.000,0.00,0.09,-272.79,-272.83,-15,529,-943,25.1,18.1,-0.8,24.7,18.9,-0.6,5.73,2.03,-1.3,29.1
2016-06-01 00:52:00,0.0,1.90294,0.00028,405.563,0.047,0.7441,0.0087,139.998,45.000,31835.83652,1.91721,409.280,36.001,45.070,45.000,0.00,0.09,-272.77,-272.84,-15,529,-943,25.1,17.6,-1.2,24.7,18.6,-0.8,5.73,1.73,-1.3,29.1
2016-06-01 00:53:00,0.0,1.90272,0.00034,405.569,0.030,0.7450,0.0064,139.999,45.000,31837.41731,1.91700,409.287,36.008,45.070,45.000,0.00,0.09,-272.77,-272.83,-14,529,-943,25.1,17.6,-1.2,24.7,18.4,-0.9,5.73,1.80,-1.3,29.1
2016-06-01 00:54:00,0.0,1.90251,0.00040,405.513,0.043,0.7611,0.0070,140.001,45.000,31836.34735,1.91708,409.315,36.001,45.070,45.000,0.00,0.09,-272.78,-272.84,-14,529,-943,25.1,18.1,-0.8,24.7,18.7,-0.7,5.73,2.00,-1.3,29.0
2016-06-01 00:55:00,0.0,1.90230,0.00045,405.497,0.039,0.7614,0.0070,140.001,45.000,31838.27952,1.91691,409.300,36.001,45.070,45.000,0.00,0.09,-272.77,-272.84,-15,529,-943,25.1,18.1,-0.8,24.7,18.8,-0.6,5.73,1.66,-1.3,29.0
2016-06-01 00:56:00,0.0,1.90244,0.00041,405.501,0.047,0.7615,0.0061,139.996,45.000,31837.90961,1.91703,409.307,36.001,45.070,45.000,0.00,0.09,-272.77,-272.83,-14,530,-943,25.1,18.0,-0.9,24.7,18.9,-0.6,5.73,1.93,-1.3,29.0
2016-06-01 00:57:00,0.0,1.90284,0.00029,405.562,0.043,0.7448,0.0044,140.002,45.000,31839.01620,1.91714,409.280,36.003,45.070,45.000,0.00,0.09,-272.78,-272.84,-14,529,-943,25.1,17.6,-1.2,24.7,18.5,-0.8,5.73,1.89,-1.2,29.1
2016-06-01 00:58:00,0.0,1.90286,0.00040,405.553,0.033,0.7493,0.0036,140.003,45.000,31839.34245,1.91723,409.294,36.000,45.070,45.000,0.00,0.09,-272.78,-272.84,-15,529,-943,25.1,17.7,-1.1,24.7,18.5,-0.9,5.73,1.67,-1.3,29.0
2016-06-01 00:59:00,0.0,1.90273,0.00049,405.535,0.031,0.7506,0.0059,139.999,45.000,31838.16321,1.91714,409.283,36.011,45.070,45.000,0.00,0.09,-272.78,-272.83,-14,530,-943,25.1,17.8,-1.1,24.7,18.5,-0.8,5.73,2.01,-1.3,29.1
2016-06-01 01:00:00,0.0,1.90244,0.00047,405.479,0.033,0.7641,0.0040,139.999,45.000,31838.50890,1.91705,409.294,36.014,45.070,45.000,0.00,0.09,-272.77,-272.84,-14,529,-943,25.1,18.2,-0.8,24.7,18.8,-0.6,5.73,1.76,-1.2,29.1
2016-06-01 01:01:00,0.0,1.90251,0.00040,405.485,0.057,0.7672,0.0056,140.000,45.000,31838.35282,1.91723,409.317,36.025,45.070,45.000,0.00,0.09,-272.79,-272.84,-15,529,-943,25.1,18.2,-0.8,24.7,19.0,-0.5,5.73,1.77,-1.2,29.1
2016-06-01 01:02:00,0.0,1.90275,0.00040,405.523,0.032,0.7553,0.0034,140.000,45.000,31837.57490,1.91725,409.296,36.030,45.070,45.000,0.00,0.09,-272.78,-272.83,-15,529,-943,25.1,17.9,-1.0,24.7,18.8,-0.7,5.73,2.01,-1.2,29.1
2016-06-01 01:03:00,0.0,1.90276,0.00034,405.518,0.036,0.7584,0.0056,140.000,45.000,31837.07716,1.91729,409.305,36.025,45.070,45.000,0.00,0.09,-272.77,-272.83,-14,529,-943,25.1,18.0,-0.9,24.7,18.7,-0.7,5.73,1.67,-1.2,29.1
2016-06-01 01:04:00,0.0,1.90282,0.00044,405.503,0.041,0.7598,0.0049,140.000,45.000,31836.00520,1.91738,409.299,36.001,45.070,45.000,0.00,0.09,-272.79,-272.84,-15,529,-943,25.1,18.0,-0.9,24.7,18.8,-0.6,5.73,1.91,-1.2,29.0
2016-06-01 01:05:00,0.0,1.90306,0.00033,405.536,0.032,0.7519,0.0034,140.001,45.000,31835.30833,1.91746,409.291,36.000,45.070,45.000,0.00,0.09,-272.78,-272.83,-15,529,-943,25.1,17.8,-1.1,24.7,18.6,-0.8,5.73,1.92,-1.2,29.0
2016-06-01 01:06:00,0.0,1.90297,0.00043,405.500,0.040,0.7657,0.0062,140.000,45.000,31836.52156,1.91767,409.324,36.000,45.070,45.000,0.00,0.09,-272.77,-272.83,-14,530,-943,25.1,18.2,-0.8,24.7,18.8,-0.6,5.73,1.66,-1.2,29.1
2016-06-01 01:07:00,0.0,1.90262,0.00038,405.484,0.026,0.7690,0.0050,140.001,45.000,31836.85607,1.91740,409.326,36.000,45.070,45.000,0.00,0.09,-272.78,-272.83,-15,529,-943,25.1,18.3,-0.7,24.7,19.0,-0.5,5.73,2.00,-1.2,29.1
2016-06-01 01:08:00,0.0,1.90250,0.00040,405.462,0.047,0.7687,0.0073,140.002,45.000,31839.01276,1.91723,409.303,36.000,45.070,45.000,0.00,0.09,-272.77,-272.85,-15,530,-943,25.1,18.2,-0.8,24.7,19.0,-0.5,5.73,1.79,-1.2,29.1
2016-06-01 01:09:00,0.0,1.90262,0.00034,405.468,0.044,0.7664,0.0047,139.999,45.000,31838.30487,1.91730,409.296,36.005,45.070,45.000,0.00,0.09,-272.77,-272.83,-14,530,-943,25.0,18.2,-0.8,24.7,18.9,-0.6,5.73,1.75,-1.2,29.1
2016-06-01 01:10:00,0.0,1.90229,0.00048,405.417,0.038,0.7783,0.0061,140.001,45.000,31839.87284,1.91724,409.306,36.042,45.070,45.000,0.00,0.09,-272.77,-272.83,-14,529,-943,25.1,18.5,-0.6,24.7,19.2,-0.4,5.73,2.02,-1.2,29.1
2016-06-01 01:11:00,0.0,1.90241,0.00040,405.421,0.046,0.7722,0.0063,140.001,45.000,31842.68828,1.91723,409.279,36.047,45.070,45.000,0.00,0.09,-272.78,-272.84,-15,529,-943,25.0,18.4,-0.7,24.7,19.1,-0.4,5.73,1.68,-1.2,29.0
2016-06-01 01:12:00,0.0,1.90209,0.00031,405.377,0.030,0.7835,0.0041,140.000,45.000,31843.63062,1.91712,409.293,36.018,45.070,45.000,0.00,0.09,-272.78,-272.84,-14,530,-943,25.0,18.6,-0.5,24.7,19.3,-0.3,5.73,1.88,-1.2,29.1
2016-06-01 01:13:00,0.0,1.90202,0.00039,405.403,0.049,0.7775,0.0081,139.999,45.000,31842.88293,1.91694,409.287,36.001,45.070,45.000,0.00,0.09,-272.77,-272.84,-14,529,-943,25.1,18.5,-0.5,24.7,19.2,-0.3,5.73,1.94,-1.2,29.1
2016-06-01 01:14:00,0.0,1.90199,0.00039,405.351,0.035,0.7872,0.0048,140.000,45.000,31842.56037,1.91710,409.285,36.000,45.070,45.000,0.00,0.09,-272.77,-272.84,-15,529,-943,25.1,18.7,-0.4,24.7,19.5,-0.2,5.73,1.65,-1.2,29.0
2016-06-01 01:15:00,0.0,1.90257,0.00036,405.433,0.043,0.7614,0.0069,140.000,45.000,31841.74149,1.91716,409.238,36.000,45.070,45.000,0.00,0.09,-272.79,-272.84,-15,530,-943,25.0,18.0,-0.9,24.7,19.0,-0.5,5.73,2.00,-1.2,29.0
2016-06-01 01:16:00,0.0,1.90256,0.00032,405.491,0.042,0.7529,0.0093,140.002,45.000,31843.14102,1.91699,409.250,36.019,45.070,45.000,0.00,0.09,-272.77,-272.83,-14,529,-943,25.1,17.9,-1.0,24.7,18.6,-0.8,5.73,1.79,-1.2,29.1
2016-06-01 01:17:00,0.0,1.90238,0.00039,405.416,0.036,0.7701,0.0043,140.000,45.000,31841.46372,1.91712,409.261,36.052,45.070,45.000,0.00,0.09,-272.78,-272.83,-15,530,-943,25.1,18.3,-0.7,24.7,18.9,-0.5,5.73,1.75,-1.2,29.1
2016-06-01 01:18:00,0.0,1.90243,0.00045,405.407,0.034,0.7691,0.0053,140.001,45.000,31842.54991,1.91721,409.250,36.063,45.070,45.000,0.00,0.09,-272.79,-272.84,-15,530,-943,25.1,18.2,-0.8,24.7,19.0,-0.5,5.73,2.02,-1.2,29.1
2016-06-01 01:19:00,0.0,1.90271,0.00032,405.481,0.038,0.7521,0.0041,139.998,45.000,31841.41032,1.91712,409.237,36.063,45.070,45.000,0.00,0.09,-272.77,-272.84,-14,530,-943,25.1,17.9,-1.0,24.7,18.7,-0.7,5.73,1.67,-1.2,29.1
2016-06-01 01:20:00,0.0,1.90257,0.00043,405.427,0.044,0.7644,0.0047,139.999,45.000,31841.49275,1.91720,409.244,36.063,45.069,45.000,0.00,0.09,-272.78,-272.83,-15,529,-943,25.1,18.1,-0.8,24.7,18.8,-0.6,5.73,1.89,-1.2,29.1
2016-06-01 01:21:00,0.0,1.90265,0.00043,405.465,0.049,0.7628,0.0078,139.999,45.000,31841.88736,1.91728,409.274,36.063,45.069,45.000,0.00,0.09,-272.78,-272.84,-15,530,-943,25.0,18.1,-0.9,24.7,18.8,-0.7,5.73,1.93,-1.2,29.1
2016-06-01 01:22:00,0.0,1.90228,0.00037,405.417,0.026,0.7757,0.0041,140.000,45.000,31841.16906,1.91718,409.292,36.063,45.070,45.000,0.00,0.09,-272.77,-272.84,-14,529,-943,25.1,18.4,-0.6,24.7,19.1,-0.4,5.73,1.66,-1.2,29.1
2016-06-01 01:23:00,0.0,1.90259,0.00048,405.368,0.050,0.7754,0.0089,140.001,45.000,31839.59133,1.91747,409.245,36.063,45.070,45.000,0.00,0.09,-272.77,-272.84,-15,529,-943,25.1,18.4,-0.7,24.7,19.2,-0.3,5.73,2.00,-1.1,29.1
2016-06-01 01:24:00,0.0,1.90294,0.00029,405.432,0.034,0.7572,0.0084,140.001,45.000,31841.11175,1.91745,409.214,36.073,45.070,45.000,0.00,0.09,-272.77,-272.84,-15,530,-943,25.1,17.9,-1.0,24.7,18.9,-0.6,5.73,1.78,-1.1,29.1
2016-06-01 01:25:00,0.0,1.90322,0.00035,405.539,0.039,0.7300,0.0047,140.000,45.000,31840.76833,1.91723,409.181,36.083,45.070,45.000,0.00,0.09,-272.78,-272.84,-14,530,-943,25.1,17.3,-1.5,24.7,18.2,-1.1,5.73,1.76,-1.1,29.1
2016-06-01 01:26:00,0.0,1.90300,0.00040,405.479,0.055,0.7477,0.0136,140.002,45.000,31841.26984,1.91730,409.211,36.072,45.070,45.000,0.00,0.09,-272.78,-272.83,-15,529,-943,25.1,17.6,-1.2,24.7,18.4,-0.9,5.73,2.00,-1.1,29.2
2016-06-01 01:27:00,0.0,1.90348,0.00041,405.532,0.031,0.7357,0.0050,139.999,45.000,31839.58884,1.91759,409.204,36.064,45.070,45.000,0.00,0.09,-272.77,-272.84,-16,530,-943,25.1,17.4,-1.4,24.7,18.1,-1.1,5.73,1.66,-1.1,29.0
2016-06-01 01:28:00,0.0,1.90337,0.00044,405.524,0.047,0.7342,0.0056,140.002,45.000,31841.08990,1.91745,409.190,36.062,45.070,45.000,0.00,0.09,-272.79,-272.84,-14,530,-943,25.1,17.3,-1.4,24.7,18.1,-1.1,5.73,1.92,-1.1,29.1
2016-06-01 01:29:00,0.0,1.90299,0.00035,405.467,0.029,0.7502,0.0038,139.999,45.000,31840.57382,1.91738,409.211,36.060,45.070,45.000,0.00,0.09,-272.77,-272.84,-15,529,-943,25.1,17.7,-1.1,24.7,18.4,-0.9,5.73,1.89,-1.1,29.2
2016-06-01 01:30:00,0.0,1.90326,0.00034,405.526,0.046,0.7397,0.0090,139.999,45.000,31841.12493,1.91743,409.219,36.038,45.070,45.000,0.00,0.09,-272.77,-272.83,-15,530,-943,25.1,17.5,-1.3,24.7,18.3,-1.0,5.73,1.67,-1.1,29.1
2016-06-01 01:31:00,0.0,1.90322,0.00039,405.496,0.038,0.7484,0.0055,140.000,45.000,31840.11641,1.91759,409.232,36.023,45.070,45.000,0.00,0.09,-272.79,-272.84,-14,530,-943,25.1,17.7,-1.1,24.7,18.4,-0.9,5.73,2.01,-1.1,29.1
2016-06-01 01:32:00,0.0,1.90292,0.00041,405.430,0.052,0.7648,0.0067,139.998,45.000,31840.41251,1.91758,409.250,36.011,45.070,45.000,0.00,0.09,-272.78,-272.84,-14,529,-943,25.1,18.1,-0.8,24.7,18.7,-0.7,5.73,1.75,-1.1,29.1
2016-06-01 01:33:00,0.0,1.90261,0.00044,405.386,0.047,0.7762,0.0051,140.002,45.000,31841.72289,1.91752,409.263,36.013,45.070,45.000,0.00,0.09,-272.77,-272.83,-15,530,-943,25.1,18.4,-0.6,24.7,19.1,-0.4,5.73,1.77,-1.1,29.2
2016-06-01 01:34:00,0.0,1.90248,0.00041,405.385,0.023,0.7786,0.0040,140.000,45.000,31841.57224,1.91740,409.275,36.001,45.070,45.000,0.00,0.09,-272.78,-272.84,-14,530,-943,25.1,18.4,-0.6,24.7,19.2,-0.3,5.73,2.00,-1.1,29.2
2016-06-01 01:35:00,0.0,1.90300,0.00032,405.416,0.036,0.7652,0.0049,140.000,45.000,31840.20354,1.91767,409.239,36.003,45.070,45.000,0.00,0.09,-272.78,-272.85,-14,529,-943,25.1,18.1,-0.8,24.7,19.0,-0.5,5.73,1.65,-1.1,29.1
2016-06-01 01:36:00,0.0,1.90319,0.00046,405.473,0.055,0.7496,0.0115,139.998,45.000,31841.49414,1.91757,409.216,36.035,45.070,45.000,0.00,0.09,-272.77,-272.83,-16,530,-943,25.1,17.7,-1.2,24.7,18.6,-0.7,5.73,1.93,-1.1,29.1
2016-06-01 01:37:00,0.0,1.90321,0.00035,405.469,0.035,0.7469,0.0039,139.999,45.000,31842.14866,1.91754,409.198,36.054,45.070,45.000,0.00,0.09,-272.77,-272.84,-15,530,-943,25.1,17.6,-1.2,24.7,18.4,-0.9,5.73,1.86,-1.1,29.2
2016-06-01 01:38:00,0.0,1.90317,0.00039,405.442,0.043,0.7494,0.0126,139.999,45.000,31842.93850,1.91753,409.185,36.059,45.070,45.000,0.00,0.09,-272.78,-272.84,-14,530,-943,25.1,17.6,-1.2,24.7,18.5,-0.8,5.73,1.68,-1.1,29.2
2016-06-01 01:39:00,0.0,1.90314,0.00035,405.461,0.061,0.7444,0.0121,140.001,45.000,31845.01157,1.91740,409.175,36.061,45.069,45.000,0.00,0.09,-272.78,-272.84,-15,529,-943,25.1,17.6,-1.2,24.7,18.2,-1.0,5.73,2.01,-1.1,29.2
2016-06-01 01:40:00,0.0,1.90284,0.00028,405.355,0.039,0.7702,0.0064,140.001,45.000,31845.06724,1.91762,409.202,36.060,45.070,45.000,0.00,0.09,-272.77,-272.84,-15,530,-943,25.1,18.2,-0.7,24.7,18.9,-0.6,5.73,1.69,-1.1,29.2
2016-06-01 01:41:00,0.0,1.90315,0.00025,405.366,0.034,0.7663,0.0049,139.999,45.000,31843.71979,1.91787,409.193,36.069,45.069,45.000,0.00,0.09,-272.79,-272.84,-14,529,-943,25.1,18.1,-0.8,24.7,18.9,-0.6,5.73,1.84,-1.1,29.2
2016-06-01 01:42:00,0.0,1.90380,0.00042,405.457,0.065,0.7461,0.0118,139.999,45.000,31842.18780,1.91808,409.183,36.097,45.070,45.000,0.00,0.09,-272.78,-272.84,-16,530,-943,25.1,17.6,-1.2,24.7,18.6,-0.8,5.73,1.93,-1.1,29.2
2016-06-01 01:43:00,0.0,1.90354,0.00041,405.432,0.033,0.7526,0.0052,140.000,45.000,31841.88489,1.91798,409.190,36.104,45.069,45.000,0.00,0.09,-272.77,-272.83,-15,530,-943,25.1,17.7,-1.1,24.7,18.5,-0.8,5.73,1.64,-1.1,29.2
2016-06-01 01:44:00,0.0,1.90370,0.00033,405.461,0.036,0.7444,0.0050,139.998,45.000,31841.80050,1.91797,409.175,36.125,45.069,45.000,0.00,0.09,-272.78,-272.84,-14,530,-943,25.1,17.6,-1.2,24.7,18.3,-1.0,5.73,1.97,-1.0,29.1
2016-06-01 01:45:00,0.0,1.90363,0.00034,405.476,0.051,0.7480,0.0053,140.000,45.000,31842.49900,1.91796,409.210,36.125,45.069,45.000,0.00,0.09,-272.78,-272.84,-15,530,-943,25.1,17.6,-1.2,24.7,18.4,-0.9,5.73,1.78,-1.0,29.1